User: anonymous   Login
Location: Township of South Roscoe
(37.9570°N, 100.1180°W)
Time: 03:19:28
(UTC+00:00)
Language:

Cosmos 1758 - Orbit

View from above orbital plane
View from above orbital plane
View from above satellite
View from above satellite

Ground track
Ground track

The orbit data is extracted from the following two-line orbital elements,

1 16791U 86046A   22021.51750838  .00000805  00000-0  53650-4 0  9998
2 16791  82.4690 194.5013 0017574 127.4151 232.8679 15.05617740937971
Epoch (UTC): 21 January 2022 12:25:12
Eccentricity: 0.0017574
inclination: 82.4690°
perigee height: 537 km
apogee height: 562 km
right ascension of ascending node: 194.5013°
argument of perigee: 127.4151°
revolutions per day: 15.05617740
mean anomaly at epoch: 232.8679°
orbit number at epoch: 93797

The dashed part of the orbit path shows where the satellite is in the earth's shadow,  

DLR